When you browse on this site, cookies collect data to enhance your experience and personalize the content and advertising you see.
Visit our Privacy Policy to learn more. By continuing to use the site, you agree to this use of cookies and data.
  • In France
  • List of Countries
  • For 7 days
  • Water Temperature
  • Satellite Maps
  • Weather Map
  • Weather Widgets
  • user-avatar
    Login

    Hourly Weather Albany

    Today, 12 December, Wednesday

    Time Temperature Precipitation Wind Pressure Humidity
    00:00 +17°C° 0.1 mm 6 mps 755 mmHg 82%
    01:00 +17°C° 0.1 mm 6 mps 756 mmHg 81%
    02:00 +16°C° 0 mm 6 mps 756 mmHg 82%
    03:00 +16°C° 0 mm 6 mps 757 mmHg 80%
    04:00 +15°C° 0 mm 5 mps 757 mmHg 78%
    05:00 +15°C° 0 mm 5 mps 758 mmHg 76%
    06:00 +15°C° 0 mm 5 mps 758 mmHg 71%
    07:00 +16°C° 0 mm 5 mps 759 mmHg 65%
    08:00 +17°C° 0 mm 4 mps 760 mmHg 62%
    09:00 +18°C° 0 mm 4 mps 760 mmHg 59%
    10:00 +18°C° 0 mm 4 mps 760 mmHg 56%
    11:00 +19°C° 0 mm 4 mps 761 mmHg 54%
    12:00 +19°C° 0 mm 4 mps 761 mmHg 51%
    13:00 +20°C° 0 mm 4 mps 761 mmHg 49%
    14:00 +21°C° 0 mm 4 mps 761 mmHg 47%
    15:00 +20°C° 0 mm 4 mps 761 mmHg 49%
    16:00 +19°C° 0 mm 4 mps 761 mmHg 51%
    17:00 +19°C° 0 mm 5 mps 761 mmHg 53%
    18:00 +17°C° 0 mm 4 mps 762 mmHg 58%
    19:00 +15°C° 0 mm 4 mps 762 mmHg 63%
    20:00 +14°C° 0 mm 4 mps 762 mmHg 68%
    21:00 +13°C° 0 mm 4 mps 762 mmHg 70%
    22:00 +13°C° 0 mm 4 mps 762 mmHg 72%
    23:00 +13°C° 0 mm 4 mps 763 mmHg 74%

    Tomorrow, 13 December, Thursday

    Time Temperature Precipitation Wind Pressure Humidity
    00:00 +12°C° 0 mm 4 mps 763 mmHg 76%
    01:00 +12°C° 0 mm 4 mps 762 mmHg 77%
    02:00 +12°C° 0 mm 4 mps 762 mmHg 79%
    03:00 +11°C° 0 mm 4 mps 762 mmHg 80%
    04:00 +11°C° 0 mm 4 mps 762 mmHg 82%
    05:00 +11°C° 0 mm 4 mps 762 mmHg 84%
    06:00 +13°C° 0 mm 4 mps 762 mmHg 75%
    07:00 +15°C° 0 mm 5 mps 762 mmHg 67%
    08:00 +17°C° 0 mm 5 mps 762 mmHg 58%
    09:00 +20°C° 0 mm 5 mps 761 mmHg 51%
    10:00 +22°C° 0 mm 5 mps 761 mmHg 44%
    11:00 +25°C° 0 mm 5 mps 761 mmHg 37%
    12:00 +26°C° 0 mm 6 mps 760 mmHg 36%
    13:00 +27°C° 0 mm 6 mps 760 mmHg 34%
    14:00 +28°C° 0 mm 6 mps 760 mmHg 33%
    15:00 +27°C° 0 mm 7 mps 759 mmHg 38%
    16:00 +26°C° 0 mm 7 mps 759 mmHg 42%
    17:00 +24°C° 0 mm 7 mps 758 mmHg 47%
    18:00 +22°C° 0 mm 7 mps 758 mmHg 55%
    19:00 +20°C° 0 mm 7 mps 758 mmHg 62%
    20:00 +17°C° 0 mm 7 mps 758 mmHg 70%
    21:00 +17°C° 0 mm 7 mps 758 mmHg 72%
    22:00 +16°C° 0 mm 6 mps 758 mmHg 73%
    23:00 +16°C° 0 mm 6 mps 758 mmHg 75%

    Day after tomorrow, 14 December, Friday

    Time Temperature Precipitation Wind Pressure Humidity
    00:00 +16°C° 0 mm 6 mps 758 mmHg 76%
    01:00 +16°C° 0 mm 6 mps 757 mmHg 77%
    02:00 +15°C° 0 mm 5 mps 756 mmHg 79%
    03:00 +15°C° 0 mm 5 mps 756 mmHg 79%
    04:00 +15°C° 0 mm 5 mps 756 mmHg 79%
    05:00 +15°C° 0 mm 4 mps 756 mmHg 79%
    06:00 +19°C° 0 mm 4 mps 756 mmHg 66%
    07:00 +21°C° 0 mm 4 mps 756 mmHg 54%
    08:00 +25°C° 0 mm 4 mps 756 mmHg 41%
    09:00 +28°C° 0 mm 4 mps 756 mmHg 36%
    10:00 +30°C° 0 mm 4 mps 756 mmHg 30%
    11:00 +34°C° 0 mm 4 mps 755 mmHg 25%
    12:00 +34°C° 0 mm 5 mps 755 mmHg 26%
    13:00 +35°C° 0 mm 5 mps 754 mmHg 26%
    14:00 +35°C° 0 mm 5 mps 753 mmHg 27%
    15:00 +33°C° 0 mm 5 mps 753 mmHg 31%
    16:00 +32°C° 0 mm 5 mps 753 mmHg 34%
    17:00 +30°C° 0 mm 6 mps 753 mmHg 38%
    18:00 +28°C° 0 mm 5 mps 753 mmHg 43%
    19:00 +26°C° 0 mm 5 mps 753 mmHg 49%
    20:00 +23°C° 0 mm 5 mps 753 mmHg 54%
    21:00 +22°C° 0 mm 5 mps 753 mmHg 56%
    22:00 +21°C° 0 mm 5 mps 753 mmHg 59%
    23:00 +21°C° 0 mm 5 mps 752 mmHg 61%

    15 December, Saturday

    Time Temperature Precipitation Wind Pressure Humidity
    00:00 +20°C° 0 mm 4 mps 752 mmHg 63%
    01:00 +20°C° 0 mm 4 mps 751 mmHg 66%
    02:00 +20°C° 0 mm 4 mps 750 mmHg 68%
    03:00 +20°C° 0.1 mm 4 mps 750 mmHg 71%
    04:00 +20°C° 0.1 mm 3 mps 750 mmHg 74%
    05:00 +19°C° 0.1 mm 3 mps 750 mmHg 77%
    06:00 +20°C° 0.1 mm 3 mps 750 mmHg 73%
    07:00 +21°C° 0.1 mm 3 mps 751 mmHg 68%
    08:00 +22°C° 0.1 mm 3 mps 751 mmHg 63%
    09:00 +22°C° 0.5 mm 3 mps 751 mmHg 65%
    10:00 +22°C° 0.5 mm 3 mps 751 mmHg 66%
    11:00 +22°C° 0.5 mm 3 mps 751 mmHg 68%
    12:00 +23°C° 0.1 mm 4 mps 750 mmHg 61%
    13:00 +26°C° 0.1 mm 5 mps 749 mmHg 54%
    14:00 +27°C° 0.1 mm 5 mps 749 mmHg 47%
    15:00 +24°C° 0.2 mm 6 mps 748 mmHg 53%
    16:00 +23°C° 0.2 mm 7 mps 748 mmHg 60%
    17:00 +21°C° 0.2 mm 8 mps 748 mmHg 67%
    18:00 +20°C° 0.4 mm 8 mps 748 mmHg 71%
    19:00 +18°C° 0.4 mm 8 mps 749 mmHg 76%
    20:00 +18°C° 0.4 mm 9 mps 749 mmHg 80%
    21:00 +17°C° 0.4 mm 8 mps 749 mmHg 82%
    22:00 +17°C° 0.4 mm 8 mps 749 mmHg 85%
    23:00 +17°C° 0.4 mm 8 mps 749 mmHg 87%

    16 December, Sunday

    Time Temperature Precipitation Wind Pressure Humidity
    00:00 +17°C° 0.1 mm 8 mps 749 mmHg 87%
    01:00 +17°C° 0.1 mm 8 mps 748 mmHg 86%
    02:00 +17°C° 0.1 mm 8 mps 748 mmHg 86%
    03:00 +17°C° 0.1 mm 8 mps 748 mmHg 87%
    04:00 +17°C° 0.1 mm 8 mps 748 mmHg 87%
    05:00 +17°C° 0.1 mm 8 mps 748 mmHg 87%
    06:00 +17°C° 0.2 mm 7 mps 749 mmHg 87%
    07:00 +17°C° 0.2 mm 7 mps 749 mmHg 87%
    08:00 +17°C° 0.2 mm 7 mps 749 mmHg 86%
    09:00 +17°C° 0.2 mm 6 mps 749 mmHg 85%
    10:00 +19°C° 0.2 mm 6 mps 749 mmHg 84%
    11:00 +19°C° 0.2 mm 6 mps 749 mmHg 83%
    12:00 +19°C° 0.3 mm 6 mps 749 mmHg 84%
    13:00 +19°C° 0.3 mm 5 mps 749 mmHg 85%
    14:00 +19°C° 0.3 mm 5 mps 748 mmHg 86%
    15:00 +19°C° 0.4 mm 5 mps 749 mmHg 87%
    16:00 +17°C° 0.4 mm 6 mps 749 mmHg 89%
    17:00 +17°C° 0.4 mm 6 mps 749 mmHg 91%
    18:00 +17°C° 0.9 mm 6 mps 749 mmHg 91%
    19:00 +17°C° 0.9 mm 6 mps 750 mmHg 92%
    20:00 +17°C° 0.9 mm 6 mps 750 mmHg 92%
    21:00 +17°C° 0.5 mm 6 mps 750 mmHg 92%
    22:00 +17°C° 0.5 mm 6 mps 751 mmHg 93%
    23:00 +17°C° 0.5 mm 6 mps 751 mmHg 93%

    17 December, Monday

    Time Temperature Precipitation Wind Pressure Humidity
    00:00 +17°C° 0.6 mm 6 mps 751 mmHg 93%
    01:00 +17°C° 0.6 mm 6 mps 750 mmHg 93%
    02:00 +17°C° 0.6 mm 6 mps 750 mmHg 92%
    03:00 +17°C° 0.4 mm 6 mps 750 mmHg 92%
    04:00 +17°C° 0.4 mm 6 mps 751 mmHg 92%
    05:00 +16°C° 0.4 mm 6 mps 751 mmHg 92%
    06:00 +17°C° 0.4 mm 5 mps 751 mmHg 92%
    07:00 +17°C° 0.4 mm 5 mps 752 mmHg 92%
    08:00 +17°C° 0.4 mm 5 mps 752 mmHg 91%
    09:00 +17°C° 0.4 mm 5 mps 752 mmHg 91%
    10:00 +17°C° 0.4 mm 5 mps 752 mmHg 91%
    11:00 +17°C° 0.4 mm 5 mps 753 mmHg 91%
    12:00 +17°C° 0.2 mm 5 mps 753 mmHg 90%
    13:00 +17°C° 0.2 mm 5 mps 753 mmHg 88%
    14:00 +19°C° 0.2 mm 5 mps 753 mmHg 86%
    15:00 +17°C° 0.1 mm 5 mps 753 mmHg 86%
    16:00 +17°C° 0.1 mm 5 mps 753 mmHg 86%
    17:00 +17°C° 0.1 mm 6 mps 754 mmHg 85%
    18:00 +17°C° 0.1 mm 5 mps 754 mmHg 86%
    19:00 +17°C° 0.1 mm 5 mps 755 mmHg 87%
    20:00 +16°C° 0.1 mm 5 mps 755 mmHg 89%
    21:00 +16°C° 0.1 mm 5 mps 755 mmHg 89%
    22:00 +17°C° 0.1 mm 4 mps 755 mmHg 89%
    23:00 +15°C° 0.1 mm 4 mps 755 mmHg 90%
    Show more